Location: Hokitika
(42.7170°S, 170.9670°E)
Time: 21:31:18
(UTC+13:00)

IRAS Rocket - Pass Details

Date: 24 January 2019
Orbit: 847 x 878 km, 100.0° (Epoch: 17 October)

Event Time Altitude Azimuth Distance (km) Brightness Sun altitude
Rises 23:31:24 0° 164° (SSE) 3,493 8.0 -20.5°
Reaches altitude 10° 23:33:49 10° 162° (SSE) 2,543 7.2 -20.8°
Maximum altitude 23:39:29 78° 75° (ENE) 894 4.1 -21.3°
Enters shadow 23:41:49 37° 355° (N) 1,324 4.8 -21.6°
